Regional Weather Roundup
Issued by NWS

Home | Current Version | Previous Version | Text Only | Print | Product List | Glossary Off
Versions: 1 2 3 4 5 6 7 8 9 10 11 12 13 14 15 16 17 18 19 20 21 22 23 24 25 26 27 28 29 30 31 32 33 34 35 36 37 38 39 40 41 42 43 44 45 46 47 48 49 50

000
ASUS43 KBIS 300902
RWRND

NORTH DAKOTA REGIONAL WEATHER ROUNDUP
NATIONAL WEATHER SERVICE BISMARCK ND
400 AM CDT MON MAY 30 2016

NOTE: "FAIR" INDICATES FEW OR NO CLOUDS BELOW 12,000 FEET WITH NO
SIGNIFICANT WEATHER AND/OR OBSTRUCTIONS TO VISIBILITY.


NDZ001>003-009>011-017-301000-
NORTHWEST NORTH DAKOTA

CITY           SKY/WX    TMP DP  RH WIND       PRES   REMARKS
WILLISTON      PTCLDY    48  42  80 N5        29.90F
MINOT          CLEAR     57  45  64 SW7       29.89F
MINOT AFB      CLEAR     49  45  84 S5        29.89F
$$

NDZ018>021-031>035-040>046-301000-
SOUTHWEST NORTH DAKOTA

CITY           SKY/WX    TMP DP  RH WIND       PRES   REMARKS
BISMARCK       CLEAR     53  51  93 E3        29.92F
DICKINSON      CLEAR     49  45  86 S8        29.90F
GARRISON         N/A     49  45  86 CALM      29.91F
HETTINGER ARPT CLEAR     49  45  86 CALM      29.94F
$$

NDZ004>008-012>016-024-026-027-054-301000-
NORTHEAST NORTH DAKOTA

CITY           SKY/WX    TMP DP  RH WIND       PRES   REMARKS
GRAND FORKS    CLEAR     51  45  79 SW5       29.91S
GRND FRKS AFB  CLEAR     52  46  80 SW5       29.91S
DEVILS LAKE    CLOUDY    57  45  64 S3        29.92F
$$

NDZ022-023-025-028>030-036>039-047>053-301000-
SOUTHEAST NORTH DAKOTA

CITY           SKY/WX    TMP DP  RH WIND       PRES   REMARKS
FARGO          MOCLDY    58  47  66 S6        29.93S
JAMESTOWN      CLEAR     53  48  83 S3        29.93S
$$




USA.gov is the U.S. government's official web portal to all federal, state and local government web resources and services.